Time,TemperatureF,DewpointF,PressureIn,WindDirection,WindDirectionDegrees,WindSpeedMPH,WindSpeedGustMPH,Humidity,HourlyPrecipIn,Conditions,Clouds,dailyrainin,SoftwareType,DateUTC
2015-07-29 00:16:00,69.8,60.0,29.88,South,181,0.0,-999.0,72,-99.99,,,0.00,weatherlink.com 1.10,2015-07-29 05:16:00,
2015-07-29 00:31:00,69.3,61.0,29.89,South,183,0.0,-999.0,74,-99.99,,,0.00,weatherlink.com 1.10,2015-07-29 05:31:00,
2015-07-29 00:47:00,68.4,61.0,29.88,South,183,0.0,-999.0,76,-99.99,,,0.00,weatherlink.com 1.10,2015-07-29 05:47:00,
2015-07-29 01:02:00,67.8,60.0,29.88,South,182,0.0,-999.0,77,-99.99,,,0.00,weatherlink.com 1.10,2015-07-29 06:02:00,
2015-07-29 01:17:00,67.4,60.0,29.88,SSE,152,0.0,-999.0,77,-99.99,,,0.00,weatherlink.com 1.10,2015-07-29 06:17:00,
2015-07-29 01:32:00,67.3,60.0,29.88,SSW,196,0.0,-999.0,77,-99.99,,,0.00,weatherlink.com 1.10,2015-07-29 06:32:00,
2015-07-29 01:47:00,67.1,59.0,29.87,SSW,195,0.0,-999.0,76,-99.99,,,0.00,weatherlink.com 1.10,2015-07-29 06:47:00,
2015-07-29 02:02:00,67.1,59.0,29.87,SSW,195,0.0,-999.0,74,-99.99,,,0.00,weatherlink.com 1.10,2015-07-29 07:02:00,
2015-07-29 02:17:00,67.1,58.0,29.87,SSW,209,0.0,-999.0,73,-99.99,,,0.00,weatherlink.com 1.10,2015-07-29 07:17:00,
2015-07-29 02:32:00,66.8,57.0,29.87,SSE,165,0.0,-999.0,71,-99.99,,,0.00,weatherlink.com 1.10,2015-07-29 07:32:00,
2015-07-29 02:47:00,66.1,56.0,29.87,SSW,195,0.0,-999.0,71,-99.99,,,0.00,weatherlink.com 1.10,2015-07-29 07:47:00,
2015-07-29 03:02:00,65.6,57.0,29.87,SW,236,0.0,-999.0,73,-99.99,,,0.00,weatherlink.com 1.10,2015-07-29 08:02:00,
2015-07-29 03:17:00,65.0,57.0,29.86,SSW,203,0.0,-999.0,74,-99.99,,,0.00,weatherlink.com 1.10,2015-07-29 08:17:00,
2015-07-29 03:32:00,64.7,56.0,29.86,South,180,0.0,-999.0,73,-99.99,,,0.00,weatherlink.com 1.10,2015-07-29 08:32:00,
2015-07-29 03:47:00,64.7,55.0,29.87,SSE,166,0.0,-999.0,71,-99.99,,,0.00,weatherlink.com 1.10,2015-07-29 08:47:00,
2015-07-29 04:02:00,64.7,55.0,29.86,South,189,0.0,-999.0,70,-99.99,,,0.00,weatherlink.com 1.10,2015-07-29 09:02:00,
2015-07-29 04:17:00,64.8,55.0,29.87,SSW,210,0.0,-999.0,70,-99.99,,,0.00,weatherlink.com 1.10,2015-07-29 09:17:00,
2015-07-29 04:32:00,65.0,54.0,29.87,SW,215,0.0,-999.0,68,-99.99,,,0.00,weatherlink.com 1.10,2015-07-29 09:32:00,
2015-07-29 04:47:00,64.3,55.0,29.87,SSW,203,0.0,-999.0,71,-99.99,,,0.00,weatherlink.com 1.10,2015-07-29 09:47:00,
2015-07-29 05:17:00,63.5,54.0,29.87,SW,221,0.0,-999.0,72,-99.99,,,0.00,weatherlink.com 1.10,2015-07-29 10:17:00,
2015-07-29 05:32:00,63.2,54.0,29.88,South,186,0.0,-999.0,71,-99.99,,,0.00,weatherlink.com 1.10,2015-07-29 10:32:00,
2015-07-29 05:47:00,63.2,53.0,29.88,WSW,250,0.0,-999.0,69,-99.99,,,0.00,weatherlink.com 1.10,2015-07-29 10:47:00,
2015-07-29 06:02:00,63.2,52.0,29.88,South,191,0.0,-999.0,68,-99.99,,,0.00,weatherlink.com 1.10,2015-07-29 11:02:00,
2015-07-29 06:17:00,63.2,52.0,29.89,SSW,207,0.0,-999.0,68,-99.99,,,0.00,weatherlink.com 1.10,2015-07-29 11:17:00,
2015-07-29 06:32:00,63.2,52.0,29.89,WSW,239,0.0,-999.0,67,-99.99,,,0.00,weatherlink.com 1.10,2015-07-29 11:32:00,
2015-07-29 06:47:00,63.5,52.0,29.89,SW,219,0.0,-999.0,66,-99.99,,,0.00,weatherlink.com 1.10,2015-07-29 11:47:00,
2015-07-29 07:02:00,63.7,52.0,29.89,South,187,0.0,-999.0,65,-99.99,,,0.00,weatherlink.com 1.10,2015-07-29 12:02:00,
2015-07-29 07:17:00,64.3,51.0,29.90,WSW,247,0.0,-999.0,63,-99.99,,,0.00,weatherlink.com 1.10,2015-07-29 12:17:00,
2015-07-29 07:32:00,65.3,52.0,29.89,SSW,195,0.0,-999.0,63,-99.99,,,0.00,weatherlink.com 1.10,2015-07-29 12:32:00,
2015-07-29 07:47:00,66.0,52.0,29.89,SW,214,0.0,-999.0,61,-99.99,,,0.00,weatherlink.com 1.10,2015-07-29 12:47:00,
2015-07-29 08:02:00,66.8,53.0,29.90,SW,232,0.0,-999.0,61,-99.99,,,0.00,weatherlink.com 1.10,2015-07-29 13:02:00,
2015-07-29 08:17:00,67.3,53.0,29.91,SW,224,0.0,-999.0,60,-99.99,,,0.00,weatherlink.com 1.10,2015-07-29 13:17:00,
2015-07-29 08:32:00,67.9,53.0,29.90,WSW,241,1.0,-999.0,59,-99.99,,,0.00,weatherlink.com 1.10,2015-07-29 13:32:00,
2015-07-29 08:47:00,68.6,53.0,29.91,WSW,250,0.0,-999.0,57,-99.99,,,0.00,weatherlink.com 1.10,2015-07-29 13:47:00,
2015-07-29 09:02:00,69.4,54.0,29.91,WSW,239,0.0,-999.0,59,-99.99,,,0.00,weatherlink.com 1.10,2015-07-29 14:02:00,
2015-07-29 09:17:00,70.4,54.0,29.91,South,191,0.0,-999.0,56,-99.99,,,0.00,weatherlink.com 1.10,2015-07-29 14:17:00,
2015-07-29 09:32:00,71.5,54.0,29.91,SW,231,0.0,-999.0,55,-99.99,,,0.00,weatherlink.com 1.10,2015-07-29 14:32:00,
2015-07-29 09:47:00,72.7,53.0,29.91,SW,229,0.0,-999.0,51,-99.99,,,0.00,weatherlink.com 1.10,2015-07-29 14:47:00,
2015-07-29 10:02:00,73.0,54.0,29.91,WSW,249,1.0,-999.0,51,-99.99,,,0.00,weatherlink.com 1.10,2015-07-29 15:02:00,
2015-07-29 10:17:00,73.3,54.0,29.90,WSW,239,0.0,-999.0,51,-99.99,,,0.00,weatherlink.com 1.10,2015-07-29 15:17:00,
2015-07-29 10:32:00,73.9,55.0,29.90,SSW,197,1.0,-999.0,52,-99.99,,,0.00,weatherlink.com 1.10,2015-07-29 15:32:00,
2015-07-29 10:47:00,74.0,55.0,29.90,West,275,0.0,-999.0,51,-99.99,,,0.00,weatherlink.com 1.10,2015-07-29 15:47:00,
2015-07-29 11:02:00,74.0,55.0,29.90,SW,236,4.0,-999.0,51,-99.99,,,0.00,weatherlink.com 1.10,2015-07-29 16:02:00,
2015-07-29 11:17:00,74.7,56.0,29.91,SW,224,6.0,-999.0,52,-99.99,,,0.00,weatherlink.com 1.10,2015-07-29 16:17:00,
2015-07-29 11:32:00,75.4,54.0,29.91,SW,225,0.0,-999.0,48,-99.99,,,0.00,weatherlink.com 1.10,2015-07-29 16:32:00,
2015-07-29 11:47:00,76.0,56.0,29.91,SW,224,0.0,-999.0,50,-99.99,,,0.00,weatherlink.com 1.10,2015-07-29 16:47:00,
2015-07-29 12:02:00,76.1,55.0,29.91,West,266,0.0,-999.0,48,-99.99,,,0.00,weatherlink.com 1.10,2015-07-29 17:02:00,
2015-07-29 12:17:00,76.7,55.0,29.91,WSW,245,7.0,-999.0,48,-99.99,,,0.00,weatherlink.com 1.10,2015-07-29 17:17:00,
2015-07-29 12:48:00,77.2,55.0,29.91,SW,221,1.0,-999.0,46,-99.99,,,0.00,weatherlink.com 1.10,2015-07-29 17:48:00,
2015-07-29 13:03:00,77.6,55.0,29.91,West,273,0.0,-999.0,46,-99.99,,,0.00,weatherlink.com 1.10,2015-07-29 18:03:00,
2015-07-29 13:18:00,77.9,54.0,29.91,WNW,292,0.0,-999.0,44,-99.99,,,0.00,weatherlink.com 1.10,2015-07-29 18:18:00,
2015-07-29 13:33:00,78.3,56.0,29.91,SSE,166,0.0,-999.0,47,-99.99,,,0.00,weatherlink.com 1.10,2015-07-29 18:33:00,
2015-07-29 13:48:00,78.5,55.0,29.91,SW,215,0.0,-999.0,44,-99.99,,,0.00,weatherlink.com 1.10,2015-07-29 18:48:00,
2015-07-29 14:03:00,79.0,56.0,29.91,WNW,289,0.0,-999.0,45,-99.99,,,0.00,weatherlink.com 1.10,2015-07-29 19:03:00,
2015-07-29 14:18:00,79.2,55.0,29.91,SW,233,9.0,-999.0,43,-99.99,,,0.00,weatherlink.com 1.10,2015-07-29 19:18:00,